Temperature
20 20 20 20 19 19 19 18 18 18 17 17 17 16 16 16 16 16 16 16 16 16 16 16 16 15 15 15 15 15 15 15 15 15 15 15 15 15 15 15 15 15 15
21 20 20 19 19 19 19 18 18 18 17 17 17 17 16 16 16 16 16 16 16 16 16 16 15 15 15 15 15 15 15 15 15 15 15 15 15 15 15 15 15 14 14
21 20 20 19 19 19 19 19 18 18 17 17 17 17 16 16 16 16 16 16 16 16 16 15 15 15 15 15 15 15 15 15 15 15 15 15 15 14 14 14 14 14 14
21 20 20 19 19 19 19 19 18 18 17 17 17 17 16 16 16 16 16 16 16 16 15 15 15 15 15 15 15 15 15 15 15 15 15 15 15 15 14 14 14 14 14
21 21 20 20 19 19 19 18 18 18 17 17 17 17 16 16 16 16 16 16 16 15 15 15 15 15 15 15 15 15 15 15 15 15 15 15 15 15 15 14 14 14 14
21 21 20 20 19 19 18 18 18 18 17 17 17 17 16 16 16 16 16 16 16 16 15 15 15 15 15 15 15 15 15 15 15 15 15 15 15 15 15 15 14 14 14
21 21 20 20 19 19 18 18 18 17 17 17 17 17 17 16 16 16 16 16 16 16 16 16 16 15 15 15 15 15 15 15 15 15 15 15 15 15 15 15 14 14 14
21 21 20 20 19 19 18 18 18 17 17 17 17 17 17 17 16 16 16 16 16 16 16 16 16 15 15 15 15 15 15 15 15 15 15 15 15 15 15 15 14 14 14
21 21 20 20 19 19 19 18 18 18 17 17 17 17 17 17 17 16 16 16 16 16 16 16 16 16 16 15 15 15 15 15 15 15 15 15 15 15 15 15 14 14 14
21 21 20 20 19 19 19 18 18 18 18 18 17 17 17 17 17 17 16 16 16 16 16 16 16 16 16 16 16 16 15 15 15 15 15 15 15 15 15 15 14 14 14
22 21 20 20 19 19 19 18 18 18 18 18 18 17 17 17 17 17 16 16 16 16 16 16 16 16 16 16 16 16 15 15 15 15 15 15 15 15 15 15 14 14 14
22 21 21 20 19 19 19 18 18 18 18 18 18 17 17 17 17 17 17 17 17 17 16 16 16 16 16 16 16 15 15 15 15 15 15 15 15 15 14 14 14 14 14
22 21 21 20 20 19 19 19 18 18 18 18 18 17 17 17 17 17 17 17 17 17 17 16 16 16 16 16 16 15 15 15 15 15 15 15 14 14 14 14 14 14 14
22 21 21 20 20 19 19 19 18 18 18 18 18 17 17 17 17 17 17 16 17 17 17 16 16 16 16 16 15 15 15 15 15 15 14 14 14 14 14 14 14 13 13
22 21 21 20 20 20 19 19 19 18 18 18 18 17 17 17 17 17 17 16 16 16 16 16 16 16 16 16 15 15 15 15 15 14 14 14 14 14 14 14 13 13 13
22 21 21 20 20 20 19 19 19 19 18 18 18 18 17 17 17 17 17 17 16 16 16 16 16 16 16 16 15 15 15 15 15 14 14 14 14 14 14 13 13 13 13
22 21 21 21 20 20 20 19 19 19 18 18 18 18 17 17 17 17 17 17 16 16 16 16 16 16 16 16 15 15 15 14 14 14 14 14 14 14 14 13 13 13 13
21 21 21 21 20 20 20 19 19 19 18 18 18 18 18 17 17 17 17 17 16 16 16 16 16 16 16 15 15 15 15 14 14 14 14 14 13 13 13 13 13 13 13
21 21 21 21 20 20 20 20 19 19 18 18 18 18 18 17 17 17 17 16 16 16 16 16 16 15 15 15 15 15 15 15 14 14 14 13 13 13 13 13 13 12 12
21 21 20 20 20 20 20 20 19 19 18 18 18 18 18 17 17 17 17 16 16 16 16 16 15 15 15 15 15 15 15 14 14 14 14 13 13 13 13 12 12 12 12
20 20 20 20 20 20 20 19 19 19 18 18 18 18 17 17 17 17 16 16 16 16 15 15 15 15 15 15 15 15 14 14 14 14 14 13 13 13 12 12 12 12 11
19 19 19 19 19 19 19 19 19 18 18 18 18 17 17 17 17 16 16 16 16 16 15 15 15 15 15 15 15 15 14 14 14 14 13 13 13 13 12 12 12 12 11
19 19 19 19 18 18 19 18 18 18 18 18 17 17 17 16 16 16 16 15 15 15 15 15 15 15 15 15 14 14 14 14 14 13 13 13 13 12 12 12 12 11 11
18 18 18 18 18 18 18 18 18 17 17 17 17 16 16 16 16 15 15 15 15 15 15 15 15 14 14 14 14 14 14 13 13 13 13 12 12 12 12 12 11 11 11
18 18 18 18 18 17 17 17 17 17 17 17 16 16 16 15 15 15 15 15 15 14 14 14 14 14 14 14 14 13 13 13 13 13 12 12 12 12 12 11 11 11 11
17 17 17 17 17 17 17 17 17 17 17 16 16 15 15 15 15 15 14 14 14 14 14 14 13 13 13 13 13 13 13 12 12 12 12 12 12 11 11 11 11 10 10
Wind_Speed
9 8 7 6 5 5 7 8 6 5 5 3 3 3 3 4 4 5 8 8 8 8 7 4 5 5 5 4 5 4 4 3 3 4 4 5 5 6 5 5 6 8 11
10 9 8 6 5 4 6 7 6 6 6 3 3 3 3 4 4 4 6 8 9 9 6 4 4 4 4 5 4 4 2 2 2 2 2 2 3 5 5 5 5 6 8
11 11 9 7 5 5 5 6 6 7 6 4 3 4 3 3 3 4 4 5 8 9 8 6 4 3 4 4 3 3 3 2 2 2 2 2 2 1 3 5 5 5 4
11 10 9 8 7 6 6 6 6 7 6 5 3 3 3 3 4 3 3 3 7 7 7 6 5 4 4 3 2 3 2 2 2 2 2 3 3 2 2 3 4 5 6
11 11 10 9 8 6 6 5 6 6 6 5 5 2 3 3 3 4 4 4 4 4 5 5 5 4 4 4 5 4 4 2 2 2 2 2 2 2 3 2 2 3 4
11 11 10 9 8 7 6 5 6 6 5 4 5 3 4 4 4 4 3 3 3 2 4 4 5 5 4 4 4 4 4 4 4 3 2 2 2 2 2 2 2 2 2
11 11 11 10 9 9 7 6 7 6 5 5 5 5 5 4 4 3 2 2 3 2 2 3 3 4 5 5 4 3 3 4 4 5 4 4 3 3 3 3 2 2 1
11 11 11 10 10 10 9 8 8 7 6 5 5 5 6 3 3 3 3 2 3 3 3 4 5 5 5 5 4 3 4 4 5 5 4 4 4 3 3 2 3 2 1
11 11 11 11 11 10 9 8 8 8 7 5 4 5 6 4 4 3 3 3 3 3 4 4 4 4 4 4 3 3 4 4 4 4 4 4 3 4 3 3 2 3 2
12 11 10 10 11 10 9 9 8 8 7 6 5 4 5 5 4 3 4 4 4 3 3 3 4 4 4 4 4 3 3 4 4 4 5 4 3 3 3 3 3 3 2
11 10 10 10 10 10 9 9 8 8 7 7 6 5 5 5 5 4 4 3 4 3 3 2 3 4 4 4 3 2 2 3 3 3 5 5 4 3 3 3 3 3 3
10 10 10 10 9 10 10 10 9 8 7 6 6 6 6 5 5 5 4 4 4 3 3 3 3 3 4 4 3 3 2 3 3 4 5 4 4 4 3 3 3 2 2
10 10 10 10 9 9 9 9 9 8 8 7 6 6 6 6 5 5 5 4 4 3 3 3 3 3 4 4 3 2 2 3 3 3 4 3 4 3 2 2 2 2 3
9 9 9 9 9 9 9 9 9 8 8 8 7 7 7 6 6 5 5 4 4 4 3 4 4 4 4 3 3 2 2 3 3 3 4 4 4 3 2 2 2 2 2
9 9 9 9 9 9 9 9 9 9 9 9 8 7 6 7 6 6 5 4 4 4 4 4 4 4 4 3 3 2 2 2 3 3 4 4 6 8 5 3 3 3 2
7 8 9 9 9 10 10 9 9 9 9 9 8 7 6 7 7 6 5 5 4 3 4 4 4 4 3 5 5 4 2 1 2 3 3 4 6 7 6 6 5 4 2
6 6 8 8 8 8 9 9 9 9 9 9 8 8 7 7 7 7 6 6 5 4 4 4 5 5 4 5 3 3 2 1 1 2 3 3 4 4 3 3 3 3 2
5 5 5 7 7 8 9 9 9 9 9 9 8 8 8 7 7 6 6 6 5 5 4 4 5 4 4 5 3 1 1 2 0 1 2 4 4 3 3 2 1 1 1
4 4 5 5 6 6 7 9 9 9 9 8 8 8 8 8 8 7 7 5 5 5 5 4 5 5 5 6 4 3 1 1 1 1 1 3 3 3 3 2 1 0 1
4 3 4 4 4 5 6 7 7 8 8 8 8 8 8 8 8 7 6 5 5 5 5 5 5 5 5 7 7 5 2 2 2 1 1 2 3 3 4 3 2 2 2
5 5 5 4 3 4 5 5 5 5 6 7 7 8 8 8 7 6 5 5 5 5 5 5 5 5 6 8 9 8 3 3 2 2 2 2 4 5 5 4 3 4 3
5 6 6 4 4 3 4 4 3 3 5 6 6 7 7 7 7 7 6 6 6 6 5 4 4 4 5 6 8 9 8 4 3 3 2 2 4 6 6 5 4 4 3
5 5 5 5 4 4 4 4 3 4 5 6 6 6 6 5 6 6 6 5 4 4 4 4 4 3 3 4 8 9 9 7 4 2 3 3 4 5 5 6 6 4 2
5 5 5 5 4 4 4 4 3 4 6 6 6 5 5 5 5 4 4 4 4 4 4 3 3 2 2 3 3 4 4 5 5 4 4 4 4 3 4 4 4 4 4
5 5 4 4 4 4 4 4 3 3 5 5 5 5 4 5 4 4 3 4 3 4 4 3 3 3 3 4 6 5 4 4 5 3 2 2 2 3 3 4 4 4 4
5 5 5 5 5 5 4 4 3 3 4 4 4 3 3 4 4 4 3 2 2 3 4 4 3 2 2 2 4 5 4 4 4 3 3 4 4 5 5 5 5 5 6
Wind_Direction
162 143 138 133 133 134 127 126 135 120 100 77 76 82 75 68 58 56 47 32 33 43 53 51 54 57 62 68 78 75 76 72 92 90 75 55 54 66 55 48 53 55 56
156 148 150 143 151 143 125 131 126 115 101 84 88 90 84 87 84 62 50 41 37 34 48 55 66 66 65 63 71 74 66 60 65 88 106 96 41 38 51 55 54 53 50
162 159 157 155 162 148 136 132 127 118 108 102 74 74 68 66 84 80 59 46 50 38 30 42 61 79 86 79 77 88 76 59 31 54 80 105 101 76 25 51 62 56 46
163 158 158 162 164 153 142 132 126 119 115 112 99 111 116 100 94 96 98 77 64 53 34 35 46 63 76 80 71 83 67 72 52 23 30 78 127 127 101 35 53 60 54
162 161 162 163 156 146 137 135 124 112 112 118 113 96 87 92 92 90 96 94 77 69 51 43 46 61 70 69 63 60 43 53 62 55 41 44 55 85 115 109 63 53 49
165 161 159 154 145 136 136 131 122 115 119 127 127 122 106 99 101 100 98 104 101 71 64 58 54 55 64 60 60 72 57 53 51 48 52 58 64 75 90 112 115 91 62
164 163 159 156 149 147 149 142 136 139 149 152 146 141 134 134 130 127 120 110 107 95 76 67 63 59 62 61 52 60 77 70 61 58 50 44 51 62 77 102 109 105 104
165 165 163 160 159 159 160 157 154 155 163 176 165 156 147 146 136 137 130 114 105 110 105 79 74 67 66 67 52 46 49 67 70 66 59 52 46 55 72 95 106 89 69
165 167 164 163 163 163 164 162 162 164 171 179 160 148 143 144 142 149 124 114 110 106 102 104 98 83 70 68 63 60 53 50 56 67 70 68 55 48 47 57 88 119 114
168 167 163 164 165 167 168 167 168 167 168 174 164 152 144 143 135 130 121 117 111 102 117 132 125 115 96 75 64 62 65 76 63 60 61 59 61 53 45 41 35 55 105
165 163 161 165 164 163 167 171 171 168 170 176 163 154 150 144 135 133 129 130 128 134 142 119 115 114 110 99 89 83 76 90 91 86 78 62 57 57 41 44 45 44 81
162 160 158 160 163 167 173 175 174 173 170 172 164 159 151 152 153 151 152 147 139 136 128 109 99 99 103 105 98 80 69 80 83 88 92 81 69 58 44 47 45 41 63
164 163 159 163 169 172 175 173 172 171 165 167 165 161 162 167 164 158 153 149 142 144 134 121 107 94 94 95 98 102 94 93 89 86 98 105 96 78 59 55 51 40 54
165 166 164 168 170 175 178 176 172 168 163 164 169 172 171 165 162 154 148 154 144 145 136 122 114 106 92 83 87 97 88 90 95 94 84 81 83 80 72 69 56 56 57
164 165 167 171 172 175 178 175 169 168 166 165 170 174 167 157 151 145 150 151 142 144 134 123 116 109 102 69 52 56 79 90 97 94 90 82 81 71 63 62 51 52 50
158 162 167 172 176 178 177 173 170 170 166 167 170 169 167 152 151 151 154 147 144 144 128 127 122 113 102 87 65 40 13 75 102 115 122 117 95 81 72 64 64 70 69
151 164 170 174 178 178 174 174 173 170 169 170 169 169 166 154 157 159 154 152 157 148 140 143 135 131 126 117 93 39 353 335 132 139 141 126 118 113 109 78 52 35 27
147 161 168 167 171 173 168 165 163 167 169 168 168 167 163 157 156 154 155 162 159 152 161 164 151 141 146 147 138 118 285 308 4 113 131 132 138 138 138 146 119 19 342
144 152 158 157 161 163 160 158 163 167 165 165 168 164 160 157 160 161 164 165 160 161 173 175 165 160 163 168 164 149 225 259 257 208 137 141 146 147 134 138 167 229 286
125 129 132 140 146 148 151 154 165 165 167 166 167 162 159 159 164 168 167 162 161 168 174 180 180 176 174 178 179 177 195 233 242 222 168 142 152 154 153 170 199 231 244
112 112 106 100 98 119 132 146 156 162 161 155 155 155 158 162 165 164 161 159 165 173 182 184 188 184 179 181 186 186 196 218 231 219 202 193 184 186 191 195 206 226 241
112 114 112 106 94 101 119 129 126 135 132 136 140 146 154 160 162 159 163 166 169 179 188 193 198 192 187 180 193 197 206 220 232 234 216 210 207 206 211 213 231 242 264
121 114 113 112 105 103 109 125 122 123 127 131 137 141 145 149 152 157 162 163 169 183 192 192 199 201 183 184 192 203 214 226 231 257 261 247 226 213 219 226 231 234 238
113 113 117 114 110 107 107 113 125 141 136 138 144 149 152 150 145 145 156 164 179 187 190 194 201 199 188 185 189 202 215 225 239 260 273 264 238 221 228 231 237 230 230
114 118 122 118 114 105 101 103 112 128 130 139 144 145 143 144 143 143 153 165 183 182 186 197 193 190 208 210 186 181 196 206 215 215 219 224 226 231 238 237 233 227 232
114 111 107 107 105 104 99 94 97 114 123 129 128 130 136 138 138 136 127 109 146 165 167 163 165 173 170 178 183 192 201 208 206 195 222 229 229 232 236 238 240 233 233
Height
1542 1545 1547 1549 1552 1554 1555 1557 1558 1559 1560 1560 1561 1561 1561 1561 1560 1560 1560 1559 1559 1560 1560 1560 1560 1560 1561 1561 1561 1562 1563 1564 1564 1564 1565 1566 1566 1566 1567 1566 1566 1566 1566
1541 1544 1547 1549 1552 1554 1555 1557 1558 1559 1560 1561 1561 1562 1562 1562 1561 1561 1561 1561 1561 1561 1561 1561 1561 1562 1562 1562 1563 1563 1564 1565 1566 1566 1566 1567 1569 1569 1569 1568 1568 1568 1568
1539 1542 1546 1548 1551 1553 1555 1557 1558 1559 1560 1561 1562 1562 1563 1563 1563 1562 1562 1562 1562 1562 1562 1562 1563 1563 1563 1564 1564 1565 1565 1566 1567 1567 1568 1568 1569 1570 1571 1571 1570 1570 1569
1537 1540 1544 1547 1550 1553 1555 1557 1558 1559 1560 1561 1562 1563 1563 1564 1564 1564 1564 1563 1563 1563 1563 1564 1564 1564 1565 1565 1566 1566 1567 1567 1568 1568 1569 1569 1569 1570 1571 1572 1572 1571 1571
1535 1539 1542 1546 1549 1552 1554 1556 1558 1559 1560 1561 1562 1563 1564 1565 1565 1565 1565 1565 1565 1565 1565 1565 1565 1566 1566 1566 1567 1567 1568 1568 1568 1569 1569 1570 1570 1570 1571 1572 1573 1573 1572
1533 1537 1541 1545 1548 1550 1553 1555 1557 1558 1560 1561 1562 1563 1564 1565 1565 1566 1566 1566 1566 1566 1566 1567 1567 1567 1567 1567 1568 1568 1568 1569 1569 1569 1570 1570 1571 1571 1571 1572 1573 1573 1573
1531 1535 1539 1542 1546 1549 1551 1554 1556 1558 1560 1561 1563 1563 1564 1565 1566 1566 1567 1567 1567 1568 1568 1568 1568 1568 1568 1568 1569 1569 1569 1570 1570 1570 1570 1571 1571 1571 1572 1572 1573 1573 1574
1529 1533 1537 1540 1543 1547 1550 1552 1555 1557 1559 1561 1563 1563 1564 1565 1566 1567 1568 1568 1568 1569 1569 1569 1569 1569 1569 1570 1570 1570 1571 1571 1571 1571 1571 1571 1572 1572 1573 1573 1573 1573 1574
1527 1531 1535 1538 1541 1544 1548 1551 1553 1556 1558 1560 1562 1564 1565 1566 1567 1567 1568 1569 1569 1569 1570 1570 1570 1570 1571 1571 1571 1571 1571 1572 1572 1572 1572 1572 1573 1573 1573 1573 1574 1574 1574
1525 1529 1533 1536 1540 1543 1546 1549 1552 1555 1557 1559 1561 1563 1564 1566 1567 1567 1568 1569 1569 1570 1571 1571 1571 1571 1571 1572 1572 1572 1572 1572 1573 1573 1573 1573 1573 1573 1574 1574 1574 1574 1574
1523 1527 1531 1535 1538 1541 1544 1548 1551 1553 1556 1558 1560 1562 1564 1565 1566 1567 1568 1569 1570 1570 1571 1572 1572 1572 1572 1572 1572 1573 1573 1573 1573 1574 1574 1574 1574 1574 1574 1574 1574 1574 1574
1522 1526 1529 1533 1537 1540 1542 1546 1549 1551 1554 1557 1559 1561 1563 1564 1565 1567 1568 1569 1569 1570 1571 1572 1572 1572 1573 1573 1573 1573 1574 1574 1574 1574 1574 1574 1574 1574 1574 1574 1574 1574 1574
1520 1524 1528 1531 1534 1537 1540 1543 1546 1549 1552 1555 1558 1560 1561 1563 1564 1566 1567 1568 1569 1570 1571 1571 1572 1572 1573 1573 1573 1574 1574 1574 1574 1574 1574 1574 1574 1574 1574 1574 1574 1574 1574
1518 1522 1525 1529 1532 1535 1538 1541 1544 1547 1550 1553 1556 1558 1559 1561 1563 1565 1566 1567 1568 1569 1570 1571 1571 1572 1573 1573 1573 1574 1574 1574 1574 1574 1574 1574 1574 1574 1574 1574 1574 1573 1573
1517 1520 1523 1527 1530 1533 1536 1539 1542 1545 1548 1550 1553 1555 1558 1559 1561 1563 1564 1566 1567 1568 1569 1570 1571 1572 1572 1573 1573 1574 1574 1574 1574 1574 1574 1574 1575 1574 1574 1574 1573 1573 1573
1515 1518 1521 1524 1527 1530 1533 1536 1539 1542 1545 1548 1550 1553 1555 1557 1559 1561 1563 1564 1566 1567 1568 1569 1570 1571 1571 1572 1573 1573 1573 1574 1574 1574 1574 1574 1574 1574 1573 1573 1573 1572 1572
1514 1517 1519 1522 1525 1528 1531 1534 1537 1540 1543 1545 1548 1550 1553 1555 1557 1559 1560 1562 1564 1565 1566 1568 1569 1569 1570 1571 1572 1572 1573 1573 1573 1573 1573 1573 1572 1572 1572 1572 1572 1571 1571
1513 1515 1518 1520 1523 1526 1529 1531 1534 1537 1540 1543 1545 1548 1550 1552 1554 1556 1558 1560 1562 1563 1565 1566 1567 1568 1569 1570 1570 1571 1571 1571 1572 1572 1572 1571 1571 1571 1570 1570 1569 1569 1569
1512 1514 1516 1519 1521 1524 1527 1530 1532 1535 1538 1540 1542 1545 1547 1549 1552 1554 1555 1557 1559 1561 1562 1564 1565 1566 1567 1568 1569 1569 1569 1570 1570 1570 1570 1570 1569 1569 1568 1568 1567 1567 1567
1510 1513 1515 1517 1520 1522 1525 1528 1530 1533 1535 1537 1540 1542 1545 1547 1549 1551 1553 1555 1557 1558 1560 1561 1563 1564 1565 1566 1566 1567 1567 1567 1567 1568 1568 1568 1567 1567 1566 1566 1565 1564 1564
1510 1512 1514 1516 1518 1520 1523 1525 1528 1530 1532 1535 1537 1540 1542 1544 1546 1548 1550 1552 1554 1556 1557 1559 1560 1561 1562 1563 1563 1564 1564 1564 1565 1565 1565 1565 1565 1564 1564 1563 1562 1562 1561
1509 1511 1513 1515 1517 1519 1522 1523 1526 1528 1530 1532 1535 1537 1539 1541 1543 1545 1547 1549 1551 1553 1554 1556 1557 1558 1559 1559 1560 1561 1561 1561 1561 1561 1561 1561 1561 1561 1560 1560 1559 1559 1558
1509 1511 1513 1515 1516 1518 1520 1522 1524 1526 1528 1530 1532 1534 1537 1539 1541 1542 1544 1546 1548 1549 1551 1552 1553 1554 1555 1556 1556 1557 1558 1558 1558 1558 1558 1558 1557 1557 1556 1556 1555 1555 1554
1509 1511 1512 1514 1516 1517 1519 1521 1523 1524 1526 1527 1530 1532 1534 1536 1538 1540 1541 1543 1545 1546 1547 1549 1550 1551 1552 1552 1553 1553 1553 1554 1554 1554 1553 1553 1553 1552 1552 1551 1551 1550 1549
1509 1511 1512 1513 1515 1517 1518 1519 1521 1522 1524 1526 1528 1530 1532 1534 1535 1537 1538 1540 1542 1543 1544 1545 1547 1547 1548 1548 1549 1549 1549 1549 1549 1549 1549 1548 1548 1547 1547 1546 1546 1545 1544
1508 1510 1512 1513 1514 1516 1517 1518 1520 1521 1522 1524 1526 1528 1530 1531 1533 1534 1536 1537 1539 1540 1541 1542 1544 1544 1545 1545 1545 1545 1545 1545 1545 1545 1543 1543 1543 1542 1541 1541 1540 1540 1539